GW0655 Weather Reports


Display with metric or nautical units.
time (UTC)temp
F
wind
direction
speed
MPH
gust
MPH
rain 1hr
in
rain 24hr
in
rain mn
in
humidity
%
barometer
mb
20260509160541 81 230 1.0 2.0 0.00 0.01 0.01 80 1012.7
20260509160037 80 207 2.0 2.0 0.00 0.01 0.01 81 1012.7
20260509155533 81 173 4.0 5.0 0.00 0.01 0.01 80 1012.4
20260509155029 81 270 3.0 5.0 0.00 0.01 0.01 79 1012.7
20260509154526 82 229 2.0 3.0 0.00 0.01 0.01 78 1012.7
20260509154023 81 187 4.0 5.0 0.00 0.01 0.01 80 1012.7
20260509153520 81 192 2.0 3.0 0.00 0.01 0.01 80 1012.7
20260509153017 80 234 4.0 5.0 0.00 0.01 0.01 82 1012.7
20260509152513 79 197 2.0 2.0 0.00 0.01 0.01 84 1012.7
20260509152009 79 231 4.0 5.0 0.00 0.01 0.01 84 1012.7
20260509151506 79 202 5.0 7.0 0.00 0.01 0.01 85 1012.7
20260509151005 78 254 4.0 6.0 0.00 0.01 0.01 86 1012.7
20260509150501 77 271 5.0 7.0 0.00 0.01 0.01 89 1012.7
20260509145959 76 161 4.0 6.0 0.00 0.01 0.01 92 1012.7
20260509145455 75 200 3.0 5.0 0.00 0.01 0.01 94 1012.7
20260509144950 75 200 1.0 2.0 0.00 0.01 0.01 96 1012.4
20260509144447 75 189 2.0 3.0 0.00 0.01 0.01 97 1012.4
20260509143944 74 203 3.0 3.0 0.00 0.01 0.01 98 1012.4
20260509143441 74 236 1.0 1.0 0.00 0.01 0.01 98 1012.4
20260509142938 74 183 2.0 3.0 0.00 0.01 0.01 98 1012.4
20260509142434 74 161 2.0 3.0 0.00 0.01 0.01 98 1012.4
20260509141930 74 157 2.0 3.0 0.00 0.01 0.01 98 1012.0
20260509141427 73 193 2.0 2.0 0.00 0.01 0.01 99 1012.0
20260509140924 73 207 1.0 1.0 0.00 0.01 0.01 98 1012.4
20260509140420 73 207 1.0 2.0 0.00 0.01 0.01 98 1012.4
20260509135918 73 168 2.0 2.0 0.00 0.01 0.01 98 1012.7
20260509135416 73 247 0.0 0.0 0.00 0.01 0.01 98 1012.7
20260509134913 73 149 1.0 1.0 0.00 0.01 0.01 98 1012.7
20260509134410 73 207 1.0 1.0 0.00 0.01 0.01 98 1012.7
20260509133907 73 206 0.0 1.0 0.00 0.01 0.01 98 1012.7
20260509133403 73 214 1.0 1.0 0.00 0.01 0.01 98 1012.7
20260509132902 73 239 0.0 1.0 0.00 0.01 0.01 98 1012.7
20260509132400 73 241 0.0 0.0 0.00 0.01 0.01 98 1012.4
20260509131857 73 202 0.0 1.0 0.00 0.01 0.01 98 1012.7
20260509131354 73 240 0.0 0.0 0.00 0.01 0.01 98 1012.7
20260509130850 73 238 1.0 1.0 0.00 0.01 0.01 98 1012.7
20260509130345 73 267 0.0 0.0 0.00 0.01 0.01 98 1012.0
20260509125843 73 268 0.0 0.0 0.01 0.01 0.01 98 1012.0
20260509125339 73 256 0.0 0.0 0.01 0.01 0.01 98 1012.0
20260509124835 73 297 1.0 2.0 0.01 0.01 0.01 98 1012.0
20260509124332 73 304 1.0 1.0 0.01 0.01 0.01 98 1011.7
20260509123830 73 305 0.0 0.0 0.01 0.01 0.01 98 1011.7
20260509123327 73 336 2.0 2.0 0.01 0.01 0.01 98 1012.0
20260509122823 73 296 1.0 1.0 0.01 0.01 0.01 98 1012.0
20260509122320 73 292 1.0 1.0 0.01 0.01 0.01 98 1012.7
20260509121817 73 258 0.0 0.0 0.00 0.00 0.00 98 1012.4
20260509121314 73 263 0.0 0.0 0.00 0.00 0.00 98 1012.4
20260509120813 73 261 0.0 0.0 0.00 0.00 0.00 98 1012.4
20260509120310 73 293 1.0 1.0 0.00 0.00 0.00 98 1012.0
20260509115808 73 270 0.0 0.0 0.00 0.00 0.00 98 1012.4
20260509115307 73 272 0.0 0.0 0.00 0.00 0.00 98 1012.0
20260509114803 73 285 0.0 0.0 0.00 0.00 0.00 98 1012.4
20260509114301 73 308 0.0 1.0 0.00 0.00 0.00 98 1012.4
20260509113800 73 323 2.0 2.0 0.00 0.00 0.00 98 1012.7
20260509113256 73 335 1.0 2.0 0.00 0.00 0.00 98 1012.7
20260509112753 73 304 1.0 1.0 0.00 0.00 0.00 98 1012.7
20260509112250 73 281 1.0 1.0 0.00 0.00 0.00 98 1012.7
20260509111747 73 323 2.0 2.0 0.00 0.00 0.00 98 1012.7
20260509111244 73 278 1.0 1.0 0.00 0.00 0.00 98 1012.7
20260509110741 73 0 2.0 3.0 0.00 0.00 0.00 98 1013.1
20260509110238 73 327 2.0 2.0 0.00 0.00 0.00 98 1012.7
20260509105736 73 221 0.0 1.0 0.00 0.00 0.00 98 1012.7
20260509105233 73 252 0.0 0.0 0.00 0.00 0.00 98 1013.1
20260509104730 73 323 2.0 2.0 0.00 0.00 0.00 98 1013.1
20260509104227 73 326 2.0 2.0 0.00 0.00 0.00 98 1013.1
20260509103725 73 354 3.0 3.0 0.00 0.00 0.00 98 1013.5
20260509103222 73 328 2.0 2.0 0.00 0.00 0.00 98 1013.5
20260509102720 73 335 2.0 2.0 0.00 0.00 0.00 98 1013.5
20260509102217 73 334 2.0 2.0 0.00 0.00 0.00 98 1013.1
20260509101713 73 327 2.0 2.0 0.00 0.00 0.00 97 1012.7
20260509101210 73 296 1.0 1.0 0.00 0.00 0.00 97 1012.7
20260509100708 73 271 0.0 0.0 0.00 0.00 0.00 97 1012.4
20260509100204 73 258 0.0 0.0 0.00 0.00 0.00 97 1012.0
20260509095701 73 254 0.0 0.0 0.00 0.00 0.00 97 1012.0
20260509095158 73 254 0.0 0.0 0.00 0.00 0.00 97 1012.0
20260509094655 73 254 0.0 0.0 0.00 0.00 0.00 97 1011.7
20260509094152 73 254 0.0 0.0 0.00 0.00 0.00 97 1011.7
20260509093651 73 254 0.0 0.0 0.00 0.00 0.00 97 1011.7
20260509093147 73 247 0.0 0.0 0.00 0.00 0.00 97 1011.7
20260509092645 73 232 0.0 0.0 0.00 0.00 0.00 97 1011.7
20260509092143 73 244 0.0 0.0 0.00 0.00 0.00 97 1011.7
20260509091641 73 273 0.0 0.0 0.00 0.00 0.00 97 1011.7
20260509091137 73 282 0.0 0.0 0.00 0.00 0.00 97 1011.7
20260509090635 73 258 0.0 0.0 0.00 0.00 0.00 97 1011.7
20260509090132 73 27 0.0 0.0 0.00 0.00 0.00 97 1011.7
20260509085629 73 209 1.0 2.0 0.00 0.00 0.00 97 1011.7
20260509085125 73 228 0.0 0.0 0.00 0.00 0.00 97 1011.7
20260509084622 73 243 0.0 0.0 0.00 0.00 0.00 97 1011.7
20260509084119 73 246 0.0 0.0 0.00 0.00 0.00 96 1011.7
20260509083617 73 282 0.0 1.0 0.00 0.00 0.00 96 1011.7
20260509083113 73 323 0.0 0.0 0.00 0.00 0.00 96 1012.0
20260509082611 73 311 0.0 0.0 0.00 0.00 0.00 96 1012.4
20260509082107 73 311 0.0 0.0 0.00 0.00 0.00 96 1012.4
20260509081605 73 312 1.0 1.0 0.00 0.00 0.00 96 1012.7
20260509081101 73 315 0.0 0.0 0.00 0.00 0.00 96 1012.0
20260509080600 73 311 1.0 1.0 0.00 0.00 0.00 95 1012.0
20260509080057 73 40 0.0 1.0 0.00 0.00 0.00 95 1012.0
20260509075555 73 286 0.0 0.0 0.00 0.00 0.00 95 1012.0
20260509075053 73 308 1.0 1.0 0.00 0.00 0.00 95 1011.7
20260509074549 73 24 0.0 0.0 0.00 0.00 0.00 95 1012.0
20260509074046 73 276 0.0 0.0 0.00 0.00 0.00 95 1012.0
20260509073542 73 278 0.0 0.0 0.00 0.00 0.00 95 1012.0
20260509073039 73 279 0.0 0.0 0.00 0.00 0.00 95 1012.4
20260509072535 73 290 0.0 0.0 0.00 0.00 0.00 95 1012.4
20260509072032 73 293 1.0 1.0 0.00 0.00 0.00 95 1012.0
20260509071529 73 268 0.0 0.0 0.00 0.00 0.00 95 1012.4
20260509071026 73 262 0.0 0.0 0.00 0.00 0.00 95 1012.7
20260509070523 73 261 0.0 0.0 0.00 0.00 0.00 95 1012.4
20260509070020 73 247 0.0 0.0 0.00 0.00 0.00 95 1012.0
20260509065515 73 235 1.0 1.0 0.00 0.00 0.00 95 1012.0
20260509065012 73 235 1.0 1.0 0.00 0.00 0.00 95 1012.0
20260509064509 73 201 1.0 2.0 0.00 0.00 0.00 95 1012.0
20260509064007 73 206 1.0 2.0 0.00 0.00 0.00 95 1012.0
20260509063502 73 225 1.0 1.0 0.00 0.00 0.00 95 1012.0
20260509063000 73 260 1.0 2.0 0.00 0.00 0.00 94 1012.4
20260509062457 73 201 4.0 5.0 0.00 0.00 0.00 94 1012.4
20260509061955 73 226 0.0 0.0 0.00 0.00 0.00 94 1011.7
20260509061451 73 251 0.0 0.0 0.00 0.00 0.00 94 1011.7
20260509060949 73 232 2.0 2.0 0.00 0.00 0.00 94 1011.7
20260509060446 73 211 0.0 1.0 0.00 0.00 0.00 94 1011.7
20260509055942 73 219 2.0 3.0 0.00 0.00 0.00 94 1011.7
20260509055437 73 196 3.0 5.0 0.00 0.00 0.00 94 1012.0
20260509054933 73 153 1.0 2.0 0.00 0.00 0.00 94 1012.4
20260509054430 73 185 1.0 1.0 0.00 0.00 0.00 94 1011.7
20260509053929 73 159 1.0 1.0 0.00 0.00 0.00 93 1011.7
20260509053426 73 171 4.0 8.0 0.00 0.00 0.00 93 1011.7
20260509052923 73 187 4.0 5.0 0.00 0.00 0.00 93 1011.7
20260509052421 73 200 2.0 2.0 0.00 0.00 0.00 92 1011.3
20260509051919 73 202 2.0 2.0 0.00 0.00 0.00 92 1011.7
20260509051416 73 212 4.0 5.0 0.00 0.00 0.00 92 1011.3
20260509050913 73 240 1.0 1.0 0.00 0.00 0.00 92 1011.7
20260509050410 73 148 1.0 1.0 0.00 0.00 0.00 92 1011.7
20260509045907 73 156 2.0 2.0 0.00 0.00 0.00 92 1011.3
20260509045403 73 212 1.0 1.0 0.00 0.00 0.00 91 1011.3
20260509044901 73 243 0.0 0.0 0.00 0.00 0.00 91 1011.3
20260509044358 73 206 1.0 1.0 0.00 0.00 0.00 91 1011.3
20260509043855 74 215 0.0 1.0 0.00 0.00 0.00 90 1011.3
20260509043351 74 223 1.0 1.0 0.00 0.00 0.00 90 1011.7
20260509042847 74 137 1.0 2.0 0.00 0.00 0.00 90 1011.3
20260509042343 74 241 1.0 1.0 0.00 0.00 0.00 89 1011.7
20260509041840 74 232 1.0 1.0 0.00 0.00 0.00 89 1011.7
20260509041337 74 204 0.0 1.0 0.00 0.00 0.00 89 1011.7
20260509040835 74 239 0.0 0.0 0.00 0.00 0.00 88 1011.7
20260509040333 75 236 0.0 1.0 0.00 0.00 0.00 88 1011.7
20260509035829 75 227 0.0 0.0 0.00 0.00 0.00 87 1011.7
20260509035327 75 230 0.0 0.0 0.00 0.00 0.00 87 1011.7
20260509034822 75 227 1.0 1.0 0.00 0.00 0.00 87 1011.7
20260509034321 75 214 2.0 2.0 0.00 0.00 0.00 87 1011.7
20260509033817 75 242 0.0 1.0 0.00 0.00 0.00 87 1011.7
20260509033315 75 221 1.0 1.0 0.00 0.00 0.00 87 1011.7
20260509032811 75 247 0.0 1.0 0.00 0.00 0.00 87 1011.7
20260509032308 75 219 0.0 1.0 0.00 0.00 0.00 87 1011.7
20260509031806 75 243 0.0 0.0 0.00 0.00 0.00 87 1011.3
20260509031303 75 259 0.0 0.0 0.00 0.00 0.00 87 1011.3
20260509030801 75 210 0.0 1.0 0.00 0.00 0.00 86 1011.3
20260509030259 75 219 0.0 1.0 0.00 0.00 0.00 86 1011.0
20260509025755 75 189 1.0 1.0 0.00 0.00 0.00 85 1011.3
20260509025250 75 238 1.0 1.0 0.00 0.00 0.00 85 1011.3
20260509024746 75 189 1.0 1.0 0.00 0.00 0.00 85 1011.0
20260509024242 75 225 1.0 1.0 0.00 0.00 0.00 84 1011.3
20260509023740 76 227 1.0 1.0 0.00 0.00 0.00 84 1011.0
20260509023237 76 249 1.0 1.0 0.00 0.00 0.00 84 1011.0
20260509022733 76 231 0.0 0.0 0.00 0.00 0.00 83 1011.0
20260509022231 76 179 1.0 2.0 0.00 0.00 0.00 83 1011.0
20260509021728 76 228 0.0 0.0 0.00 0.00 0.00 83 1010.7
20260509021225 76 281 0.0 0.0 0.00 0.00 0.00 83 1010.7
20260509020723 77 215 0.0 1.0 0.00 0.00 0.00 82 1010.7
20260509020219 77 198 0.0 0.0 0.00 0.00 0.00 81 1010.7
20260509015718 77 213 1.0 1.0 0.00 0.00 0.00 81 1010.3
20260509015216 77 233 0.0 1.0 0.00 0.00 0.00 81 1010.3
20260509014712 77 178 1.0 1.0 0.00 0.00 0.00 81 1010.3
20260509014209 77 172 0.0 0.0 0.00 0.00 0.00 81 1010.7
20260509013705 77 219 2.0 2.0 0.00 0.00 0.00 81 1010.3
20260509013201 77 180 1.0 2.0 0.00 0.00 0.00 80 1010.3
20260509012658 77 173 2.0 2.0 0.00 0.00 0.00 81 1010.3
20260509012154 77 148 4.0 5.0 0.00 0.00 0.00 80 1010.7
20260509011652 78 240 1.0 2.0 0.00 0.00 0.00 80 1010.3
20260509011149 78 165 2.0 3.0 0.00 0.00 0.00 80 1010.3
20260509010647 78 166 3.0 5.0 0.00 0.00 0.00 80 1010.3
20260509010143 78 203 1.0 1.0 0.00 0.00 0.00 79 1010.3
20260509005641 78 225 2.0 2.0 0.00 0.00 0.00 79 1010.0
20260509005137 78 69 0.0 1.0 0.00 0.00 0.00 79 1010.0
20260509004633 78 122 3.0 3.0 0.00 0.00 0.00 78 1010.0
20260509004130 78 158 0.0 1.0 0.00 0.00 0.00 78 1010.3
20260509003629 79 158 2.0 2.0 0.00 0.00 0.00 78 1010.3
20260509003126 79 240 1.0 1.0 0.00 0.00 0.00 78 1010.0
20260509002623 78 174 3.0 5.0 0.00 0.00 0.00 78 1010.0
20260509002120 79 221 3.0 3.0 0.00 0.00 0.00 77 1010.3
20260509001618 79 234 3.0 3.0 0.00 0.00 0.00 77 1010.3
20260509001113 79 172 3.0 3.0 0.00 0.00 0.00 77 1010.3
20260509000612 79 203 1.0 1.0 0.00 0.00 0.00 78 1010.3
20260509000108 79 170 3.0 5.0 0.00 0.00 0.00 77 1010.7
20260508235606 79 176 2.0 2.0 0.00 0.00 0.00 76 1010.3
20260508235102 79 128 3.0 6.0 0.00 0.00 0.00 76 1010.3
20260508234600 80 140 5.0 7.0 0.00 0.00 0.00 76 1010.3
20260508234056 80 152 3.0 5.0 0.00 0.00 0.00 75 1010.3
20260508233555 80 196 1.0 1.0 0.00 0.00 0.00 76 1010.3
20260508233052 80 230 3.0 5.0 0.00 0.00 0.00 74 1010.3
20260508232549 80 145 1.0 2.0 0.00 0.00 0.00 74 1010.0
20260508232046 81 236 2.0 2.0 0.00 0.00 0.00 73 1010.0
20260508231544 81 67 3.0 3.0 0.00 0.00 0.00 73 1010.0
20260508231041 81 213 2.0 2.0 0.00 0.00 0.00 72 1010.0
20260508230537 81 197 2.0 3.0 0.00 0.00 0.00 72 1010.3
20260508230034 80 250 2.0 2.0 0.00 0.00 0.00 72 1010.3
20260508225531 81 263 0.0 1.0 0.00 0.00 0.00 73 1010.3
20260508225028 81 205 2.0 2.0 0.00 0.00 0.00 72 1010.0
20260508224526 81 172 3.0 3.0 0.00 0.00 0.00 71 1010.0
20260508224023 81 206 2.0 3.0 0.00 0.00 0.00 71 1010.3
20260508223521 81 76 2.0 3.0 0.00 0.00 0.00 72 1010.0
20260508223018 82 250 2.0 2.0 0.00 0.00 0.00 71 1010.3
20260508222515 82 263 1.0 2.0 0.00 0.00 0.00 70 1010.0
20260508222012 82 244 2.0 2.0 0.00 0.00 0.00 70 1010.0
20260508221508 82 115 2.0 2.0 0.00 0.00 0.00 69 1010.3
20260508221004 82 172 3.0 6.0 0.00 0.00 0.00 69 1010.3
20260508220501 82 182 3.0 3.0 0.00 0.00 0.00 70 1010.3
20260508215956 82 149 3.0 3.0 0.00 0.00 0.00 69 1010.3
20260508215454 81 150 1.0 3.0 0.00 0.00 0.00 69 1010.7
20260508214950 82 160 2.0 2.0 0.00 0.00 0.00 69 1010.3
20260508214448 83 157 2.0 2.0 0.00 0.00 0.00 68 1010.7
20260508213944 81 191 0.0 1.0 0.00 0.00 0.00 70 1010.7
20260508213442 81 172 2.0 3.0 0.00 0.00 0.00 70 1010.3
20260508212937 80 176 1.0 1.0 0.00 0.00 0.00 72 1010.3
20260508212434 81 238 1.0 1.0 0.00 0.00 0.00 70 1010.7
20260508211930 81 219 0.0 1.0 0.00 0.00 0.00 71 1010.7
20260508211425 81 285 1.0 1.0 0.00 0.00 0.00 70 1010.7
20260508210923 81 151 3.0 5.0 0.00 0.00 0.00 70 1011.0
20260508210420 81 41 1.0 1.0 0.00 0.00 0.00 70 1011.0
20260508205916 80 213 1.0 1.0 0.00 0.00 0.00 72 1011.0
20260508205413 80 184 1.0 1.0 0.00 0.00 0.00 72 1011.3
20260508204909 81 183 3.0 3.0 0.00 0.00 0.00 71 1011.3
20260508204407 81 341 0.0 1.0 0.00 0.00 0.00 71 1011.3
20260508203902 82 76 1.0 2.0 0.00 0.00 0.00 69 1011.0
20260508203358 82 209 3.0 5.0 0.00 0.00 0.00 68 1011.3
20260508202854 81 216 2.0 3.0 0.00 0.00 0.00 69 1011.7
20260508202351 81 165 1.0 2.0 0.00 0.00 0.00 70 1011.3
20260508201849 80 118 3.0 3.0 0.00 0.00 0.00 71 1011.3
20260508201345 81 86 0.0 0.0 0.00 0.00 0.00 70 1011.7
20260508200842 80 241 2.0 2.0 0.00 0.00 0.00 69 1012.0
20260508200339 80 261 0.0 1.0 0.00 0.00 0.00 70 1011.7
20260508195834 80 126 3.0 3.0 0.00 0.00 0.00 70 1012.0
20260508195331 80 316 0.0 0.0 0.00 0.00 0.00 70 1012.0
20260508194827 79 214 1.0 2.0 0.00 0.00 0.00 71 1011.7
20260508194325 80 203 3.0 5.0 0.00 0.00 0.00 69 1012.0
20260508193822 80 178 2.0 2.0 0.00 0.00 0.00 69 1012.4
20260508193319 79 247 2.0 3.0 0.00 0.00 0.00 70 1012.4
20260508192815 79 352 1.0 2.0 0.00 0.00 0.00 71 1012.4
20260508192312 80 131 3.0 5.0 0.00 0.00 0.00 70 1012.4
20260508191809 79 229 1.0 2.0 0.00 0.00 0.00 71 1012.0
20260508191306 79 223 3.0 3.0 0.00 0.00 0.00 70 1012.4
20260508190804 79 146 6.0 8.0 0.00 0.00 0.00 70 1012.4
20260508190259 81 102 3.0 5.0 0.00 0.00 0.00 67 1012.7
20260508185756 80 160 0.0 0.0 0.00 0.00 0.00 69 1012.4
20260508185254 79 201 1.0 2.0 0.00 0.00 0.00 69 1012.4
20260508184750 79 297 2.0 2.0 0.00 0.00 0.00 71 1012.4
20260508184248 78 41 0.0 1.0 0.00 0.00 0.00 72 1012.4
20260508183745 78 250 1.0 1.0 0.00 0.00 0.00 71 1012.7
20260508183241 79 231 3.0 3.0 0.00 0.00 0.00 70 1012.7
20260508182737 78 187 1.0 2.0 0.00 0.00 0.00 72 1013.1
20260508182234 77 203 3.0 3.0 0.00 0.00 0.00 71 1013.5
20260508181729 77 162 3.0 3.0 0.00 0.00 0.00 72 1013.1
20260508181227 78 166 2.0 2.0 0.00 0.00 0.00 71 1013.5
20260508180723 78 201 3.0 3.0 0.00 0.00 0.00 69 1013.5
20260508180220 78 183 2.0 2.0 0.00 0.00 0.00 70 1013.5
20260508175717 78 236 1.0 1.0 0.00 0.00 0.00 69 1013.5
20260508175213 77 202 0.0 1.0 0.00 0.00 0.00 70 1013.5
20260508174712 76 18 1.0 1.0 0.00 0.00 0.00 72 1013.5
20260508174208 77 65 0.0 0.0 0.00 0.00 0.00 72 1013.5
20260508173704 77 61 2.0 2.0 0.00 0.00 0.00 71 1013.5
20260508173200 77 316 0.0 1.0 0.00 0.00 0.00 70 1013.8
20260508172658 77 176 2.0 2.0 0.00 0.00 0.00 71 1013.8
20260508172155 77 271 1.0 1.0 0.00 0.00 0.00 70 1013.8
20260508171651 77 272 1.0 1.0 0.00 0.00 0.00 69 1013.8
20260508171147 76 243 2.0 2.0 0.00 0.00 0.00 70 1013.5
20260508170644 76 212 2.0 2.0 0.00 0.00 0.00 72 1013.8
20260508170142 77 322 0.0 0.0 0.00 0.00 0.00 71 1013.5
20260508165639 76 33 0.0 0.0 0.00 0.00 0.00 70 1013.8
20260508165136 77 321 1.0 1.0 0.00 0.00 0.00 70 1014.1
20260508164632 76 348 3.0 3.0 0.00 0.00 0.00 70 1014.1
20260508164129 76 129 0.0 0.0 0.00 0.00 0.00 70 1013.8
20260508163627 76 49 0.0 0.0 0.00 0.00 0.00 71 1013.8
20260508163124 75 351 1.0 2.0 0.00 0.00 0.00 70 1014.1
20260508162620 74 254 1.0 1.0 0.00 0.00 0.00 71 1014.5
20260508162118 75 184 0.0 1.0 0.00 0.00 0.00 71 1014.5
20260508161614 73 256 0.0 1.0 0.00 0.00 0.00 73 1014.5
20260508161112 72 239 1.0 1.0 0.00 0.00 0.00 75 1014.5